Location: Coupvray
(48.8929°N, 2.7967°E)
Time: 07:45:49
(UTC+00:00)

X-37B - Pass Details

Date: 09 October 2020
Orbit: 382 x 392 km, 45.0° (Epoch: 15 October)

Event Time Altitude Azimuth Distance (km) Brightness Sun altitude
Rises 18:43:17 0° 261° (W) 2,268 5.9 -16.1°
Reaches altitude 10° 18:45:25 10° 254° (WSW) 1,412 4.4 -16.4°
Maximum altitude 18:48:25 40° 183° (S) 581 1.3 -16.9°
Enters shadow 18:48:55 37° 156° (SSE) 619 1.3 -17.0°
